Location: Pompeys Pillar
(45.9913°N, 107.9528°W)
Time: 05:48:29
(UTC+00:00)

Tiros 1 - Pass Details

Date: 30 May 2022
Orbit: 629 x 663 km, 48.4° (Epoch: 30 June)

Event Time Altitude Azimuth Distance (km) Brightness Sun altitude
Rises 12:25:17 0° 288° (WNW) 2,936 10.1 8.3°
Reaches altitude 10° 12:27:49 10° 277° (W) 2,029 9.2 8.7°
Maximum altitude 12:31:52 30° 217° (SW) 1,160 8.1 9.3°
Drops below altitude 10° 12:35:56 10° 157° (SSE) 2,040 9.8 10.0°
Sets 12:38:30 0° 146° (SSE) 2,953 10.7 10.4°
